Regional Weather Roundup
Issued by NWS

Home | Current Version | Previous Version | Text Only | Print | Product List | Glossary Off
Versions: 1 2 3 4 5 6 7 8 9 10 11 12 13 14 15 16 17 18 19 20 21 22 23 24 25 26 27 28 29 30 31 32 33 34 35 36 37 38 39 40 41 42 43 44 45 46 47 48 49 50

000
ASUS43 KLOT 280100
RWRIL

ILLINOIS REGIONAL WEATHER ROUNDUP
NATIONAL WEATHER SERVICE CHICAGO/ROMEOVILLE IL
800 PM CDT WED MAY 27 2015

NOTE: "FAIR" INDICATES FEW OR NO CLOUDS BELOW 12,000 FEET WITH NO
SIGNIFICANT WEATHER AND/OR OBSTRUCTIONS TO VISIBILITY.

* THESE STATIONS ARE NOT UNDER NWS QUALITY CONTROL. THEY ALSO MAY NOT
  REPORT WEATHER SUCH AS PRECIPITATION OR FOG.

ILZ001-002-007-009-015-016-024-280200-
NORTHWEST ILLINOIS

CITY           SKY/WX    TMP DP  RH WIND       PRES   REMARKS
MOLINE         CLEAR     75  57  53 S3        30.05F
STERLING*      CLEAR     72  59  64 CALM      30.07R
$$

ILZ003-004-008-010-011-017-018-280200-
NORTH CENTRAL ILLINOIS

CITY           SKY/WX    TMP DP  RH WIND       PRES   REMARKS
ROCKFORD       CLEAR     73  55  53 CALM      30.07R
$$

ILZ005-006-012>014-019>023-280200-
NORTHEAST ILLINOIS

CITY           SKY/WX    TMP DP  RH WIND       PRES   REMARKS
CHICAGO-OHARE  CLEAR     70  54  56 NW7       30.05R
CHICAGO-MIDWAY PTCLDY    73  54  51 NW6       30.06R
AURORA         CLEAR     71  56  58 CALM      30.07R
WAUKEGAN       CLEAR     64  55  72 SE5       30.06R
DUPAGE AIRPORT CLEAR     71  55  56 W3        30.06R
WHEELING       CLEAR     70  53  54 NW3       30.07R
NORTHERLY ISL    N/A     63  54  72 N2          N/A
$$

LMZ740>746-280200-
SOUTHERN LAKE MICHIGAN

STATION/POSITION SKY/WX   TEMP    WIND        PRES    VSBY  WAVE
                          AIR SEA DIR/SP/G                  HT/PER
                          (F)     (DEG/KT/KT) (MB)    (MI)  (FT/S)
SOUTHERN BUOY              50 38  160/  2/  4 1018.3R         1
HARRISON CRIB              68      10/  8/  9   N/A
BURNHAM HARBOR             63      10/  2/  3   N/A
CALUMET HARBOR             66      10/  2/  4   N/A
BURNS HARBOR               64      70/  5/  6 1018.3S
MICHIGAN CITY              60      30/  4/  4   N/A
MICHIGAN CITY 6N           57 53  100/  4/  4   N/A           1
ST. JOSEPH                 58 56  310/  2/  2   N/A           1/ 3
$$

ILZ025>027-034>036-040-047-049-050-058-095>099-280200-
WEST-CENTRAL ILLINOIS

CITY           SKY/WX    TMP DP  RH WIND       PRES   REMARKS
QUINCY         CLEAR     74  57  55 NE5       30.08R
$$

ILZ028>032-037-038-041>044-048-051>054-059>061-280200-
CENTRAL ILLINOIS

CITY           SKY/WX    TMP DP  RH WIND       PRES   REMARKS
DECATUR        CLEAR     73  57  57 N5        30.08S
PEORIA         CLEAR     77  56  48 CALM      30.08R
SPRINGFIELD    CLEAR     75  58  55 NW3       30.09R
TAYLORVILLE    NOT AVBL
$$

ILZ033-039-045-046-055>057-062-063-280200-
EAST-CENTRAL ILLINOIS

CITY           SKY/WX    TMP DP  RH WIND       PRES   REMARKS
CHAMPAIGN      CLEAR     72  57  59 NW6       30.08R
$$

ILZ079-100>102-280200-
SOUTHWEST ILLINOIS

CITY           SKY/WX    TMP DP  RH WIND       PRES   REMARKS
ALTON          PTCLDY    77  59  53 N8        30.09R
BELLEVILLE     CLEAR     77  61  57 N2        30.07R
CAHOKIA*       CLEAR     78  58  49 N10       30.07R
$$

ILZ064>066-069>071-074>076-080>082-084>086-088>090-092>094-280200-
SOUTH-CENTRAL ILLINOIS

CITY           SKY/WX    TMP DP  RH WIND       PRES   REMARKS
CARBONDALE     PTCLDY    74  68  81 S7        30.07S
MT. VERNON     PTCLDY    73  63  68 CALM      30.09R
$$

ILZ067-068-072-073-078-083-087-091-280200-
SOUTHEAST ILLINOIS

CITY           SKY/WX    TMP DP  RH WIND       PRES   REMARKS
LAWRENCEVILLE  CLOUDY    77  60  55 SW7       30.08R
$$

ABBREVIATIONS USED IN REMARKS
   TC - TEMPERATURE IN CELSIUS
  WCI - WIND CHILL INDEX
   HX - HEAT INDEX
  VSB - VISIBILITY
$$




USA.gov is the U.S. government's official web portal to all federal, state and local government web resources and services.